Wind_Speed
17 16 17 18 20 20 19 19 22 22 18 16 17 18 18 17 16 15 14 13 13 13 13 13 13 14 14 13 12 12 12 13 14 14 15 17 18 19 20 21 22 22 22 23 25 26 27 29 30 32 33 35 37 39 39 39 38 37 35 34 33 32 31 30 30 29 28 28 27 27 27 26 25 25 24 24 23 22 22 22 23 24 24 24 23
19 17 18 19 20 21 20 19 21 20 16 16 18 19 18 17 17 14 12 13 12 12 13 14 15 15 15 13 12 10 10 11 12 13 15 17 19 20 21 21 21 21 22 24 26 28 29 31 32 33 35 37 38 40 41 40 39 38 37 36 35 33 33 32 31 31 30 29 29 28 27 27 26 25 25 24 23 22 22 22 22 23 24 24 24
20 19 19 19 21 22 21 20 20 19 17 18 19 18 16 16 15 12 10 11 11 13 14 15 16 17 17 16 14 11 9 10 11 13 15 17 19 20 21 21 21 22 24 26 28 29 31 32 33 34 36 38 40 41 41 41 39 38 37 36 36 34 34 33 32 32 31 31 30 30 28 27 26 26 25 25 24 24 24 24 22 22 24 25 25
22 20 19 19 21 21 21 21 20 19 19 20 19 15 12 13 12 9 9 7 8 15 16 15 17 17 17 17 18 16 11 11 12 13 15 17 19 20 21 22 22 24 25 27 29 30 31 32 34 36 38 40 41 42 41 40 39 38 37 36 36 35 34 33 33 32 32 31 31 31 30 29 27 26 26 26 26 25 25 26 24 23 23 24 25
23 21 19 19 20 21 22 21 20 20 20 19 15 11 10 13 12 10 10 7 9 16 17 15 17 17 16 16 18 17 14 13 14 15 15 16 18 19 21 22 24 26 27 28 29 31 32 33 35 37 39 41 41 41 40 39 38 37 36 36 35 35 34 34 33 33 32 32 32 31 31 30 29 27 27 27 27 27 27 27 27 25 24 24 25
23 21 20 19 19 20 21 19 19 21 20 16 12 11 13 15 14 12 14 12 13 16 16 15 16 16 16 14 15 16 16 16 16 16 16 16 17 18 20 22 25 28 29 30 30 31 32 34 36 38 40 41 41 40 39 38 37 36 35 35 35 34 34 34 34 33 33 33 32 32 32 31 31 30 30 29 28 28 28 28 29 28 27 26 26
21 21 19 18 19 19 19 18 19 20 18 16 14 14 16 17 14 13 15 15 15 16 15 15 16 16 14 13 14 14 16 18 18 18 18 18 18 19 20 22 24 26 29 30 31 32 33 34 36 38 40 40 40 39 38 37 36 35 35 34 34 34 34 34 34 34 33 33 33 33 32 32 32 32 32 32 31 30 30 30 30 30 30 30 29
20 20 19 18 18 19 19 18 19 19 19 19 19 18 19 17 15 15 16 16 16 16 14 13 15 15 13 12 13 14 15 17 18 20 20 20 20 20 21 22 24 25 27 29 31 32 33 35 37 38 39 39 38 37 36 36 35 34 34 33 33 33 33 33 34 33 33 33 33 33 33 33 33 33 34 34 34 33 33 32 32 32 32 32 32
20 20 19 18 18 19 19 19 19 19 19 20 21 20 19 17 16 17 17 16 16 14 12 12 12 13 13 13 14 15 15 16 18 20 21 22 22 23 23 25 26 27 28 29 30 31 33 35 37 38 39 38 37 36 35 35 34 33 33 33 32 32 32 33 33 33 33 33 33 33 34 34 34 35 35 35 35 35 35 34 34 34 34 34 35
20 20 20 19 19 19 20 21 20 19 19 20 20 19 17 16 17 17 16 14 13 12 10 10 11 11 12 12 13 14 16 17 18 19 20 21 23 24 26 27 29 29 30 30 31 32 33 35 37 38 38 37 36 35 35 34 33 32 32 32 32 32 32 32 32 32 32 33 33 33 34 34 35 35 36 36 36 36 36 36 36 36 36 37 36
21 21 20 20 19 19 20 21 20 19 20 21 18 16 16 15 15 15 13 11 9 8 8 8 10 10 10 11 12 14 16 18 19 19 20 21 23 25 27 28 29 30 30 31 32 32 33 35 37 38 37 37 36 35 35 34 33 33 33 33 32 32 32 32 32 32 32 33 33 33 34 34 35 35 36 36 37 37 37 37 37 38 38 38 38
21 20 20 20 19 19 20 21 21 21 21 20 17 15 15 14 13 12 9 6 6 6 6 7 9 10 11 12 13 15 16 17 18 19 21 22 24 26 28 29 29 30 31 32 32 33 34 36 36 36 36 35 35 35 35 35 34 34 33 33 33 33 33 33 33 33 33 34 34 35 35 35 36 36 37 38 38 39 39 39 39 39 39 40 40
21 20 20 20 19 19 21 22 22 22 21 19 16 13 13 12 11 9 6 5 6 6 7 8 9 11 12 13 14 15 16 17 19 20 22 23 25 27 28 29 30 31 31 32 32 33 35 36 37 36 36 35 35 35 35 35 35 35 35 35 35 35 35 35 35 35 36 36 36 37 37 38 38 39 39 40 40 41 41 41 41 41 41 41 42
21 20 20 19 19 19 21 21 22 21 19 17 14 11 11 10 9 7 5 6 8 8 8 8 10 12 13 13 14 16 17 18 20 21 23 25 26 28 29 30 31 31 32 32 33 34 35 37 37 37 36 36 35 35 35 36 36 37 37 37 37 37 37 37 37 37 38 38 38 39 39 40 41 41 42 42 43 44 44 45 45 44 44 44 44
21 21 20 19 20 20 21 21 21 20 18 15 12 10 9 9 9 8 7 8 10 10 9 9 11 12 13 14 15 17 19 19 20 22 24 25 27 29 30 30 31 32 32 32 33 34 36 37 37 37 37 37 36 36 37 38 38 38 39 39 39 39 39 39 39 39 39 40 40 40 41 42 43 43 44 45 46 46 47 48 48 49 49 49 48
21 21 21 21 21 21 22 22 21 19 16 13 11 10 9 9 9 8 8 9 10 11 11 11 12 13 14 15 17 18 20 21 21 23 25 26 28 29 30 31 32 32 32 33 33 35 36 37 37 38 38 37 37 37 39 40 40 40 40 40 40 40 40 40 40 40 40 41 41 42 42 43 44 45 46 47 48 49 50 51 52 52 53 53 53
20 21 21 21 22 22 22 22 20 17 15 12 11 10 10 10 9 9 10 10 11 13 13 13 14 15 15 16 17 18 20 21 22 24 26 27 29 30 31 31 32 33 33 33 34 35 36 36 37 38 39 38 38 39 40 41 41 41 41 41 41 41 41 41 41 41 41 42 42 43 44 44 45 47 48 49 50 52 52 53 53 53 54 55 56
20 20 20 21 21 21 21 20 18 15 13 12 12 12 11 10 10 10 11 13 13 14 15 15 15 16 17 17 17 18 19 21 22 24 26 28 30 31 31 32 33 33 34 34 35 36 37 37 38 39 39 39 39 40 41 42 43 43 43 43 43 43 42 42 42 42 42 43 44 44 45 46 48 49 51 52 52 53 52 51 50 50 50 51 53
21 20 20 20 20 20 20 18 16 13 12 13 13 13 12 12 12 12 14 16 16 15 16 17 17 17 18 19 18 19 20 22 23 25 26 28 30 32 33 33 33 34 35 36 37 38 38 38 39 39 40 40 40 40 42 44 45 45 45 44 44 43 43 43 43 43 44 45 45 46 47 49 50 51 52 53 52 51 50 48 46 45 44 44 46
21 20 20 20 20 19 18 16 14 13 13 13 13 13 13 13 13 14 15 17 18 17 17 18 19 19 19 20 20 20 22 23 25 26 27 28 30 32 34 34 34 35 36 37 38 39 40 40 40 41 41 42 42 42 44 46 47 47 46 45 44 44 43 44 44 45 45 46 47 48 49 51 51 52 52 51 50 49 47 45 43 41 40 40 42
20 20 20 20 20 18 17 15 13 13 13 13 13 13 13 14 15 16 17 18 18 19 19 20 20 20 21 21 22 22 23 25 26 28 28 29 31 33 34 35 36 37 38 39 40 41 41 42 42 43 43 44 43 44 46 48 48 47 46 45 44 44 44 45 46 47 47 48 49 50 51 51 51 50 49 48 47 46 45 43 41 39 38 38 39
20 19 20 20 19 17 16 14 14 14 14 13 13 13 14 15 16 17 18 18 19 20 20 20 21 21 21 22 23 24 26 27 28 29 31 32 33 34 35 37 37 38 39 40 40 42 42 43 43 44 44 45 44 45 47 48 49 48 46 45 44 44 45 46 47 48 49 49 50 51 50 49 48 47 46 46 45 45 44 43 42 40 40 39 39
19 19 20 20 18 17 15 15 15 15 15 14 13 14 15 16 17 18 18 19 20 21 21 21 21 21 22 23 24 25 27 29 30 32 33 34 35 35 37 38 39 39 40 40 40 41 43 43 44 44 44 44 44 45 47 49 49 48 47 46 45 45 46 48 48 49 49 50 49 48 47 46 45 45 45 44 45 44 44 44 43 42 42 42 40
19 18 19 19 17 16 16 16 16 17 16 14 14 16 17 17 18 19 19 20 21 21 22 21 21 22 22 23 24 26 28 30 32 33 35 37 37 37 38 39 40 41 41 41 41 42 43 44 44 44 45 44 44 46 48 50 50 48 47 46 46 47 48 48 48 49 49 48 46 45 43 43 43 44 44 45 45 45 46 45 45 45 44 43 42
19 17 18 18 17 16 17 18 18 17 17 16 16 17 18 18 19 19 20 21 21 22 22 22 22 22 23 24 26 28 30 31 33 35 36 37 38 39 39 40 41 42 43 43 43 44 44 45 45 45 45 45 44 47 50 50 50 48 46 46 47 47 48 48 48 48 47 45 43 42 42 43 43 44 45 46 47 48 48 48 47 47 46 44 43
19 17 17 17 17 17 18 19 19 18 17 16 17 18 19 19 19 20 21 21 22 22 22 22 22 23 24 25 27 29 31 33 34 36 37 38 39 39 40 41 42 43 43 44 45 45 46 47 46 47 47 46 45 48 51 51 49 47 45 46 47 48 48 47 47 46 44 42 41 41 42 43 44 46 47 48 49 49 49 49 49 48 47 46 44
19 18 17 17 18 19 20 20 19 18 17 17 18 19 19 19 20 21 22 22 23 23 23 23 23 24 25 26 28 30 32 34 35 36 37 38 39 40 41 42 43 44 45 45 46 46 47 47 48 48 49 47 46 49 51 50 48 46 46 47 47 47 47 46 45 43 42 40 40 41 42 44 46 47 49 50 50 50 50 50 50 50 49 46 44
18 18 18 18 19 20 20 20 19 18 18 18 19 19 19 20 21 21 22 23 23 23 23 23 24 25 26 27 29 31 33 35 36 37 38 39 39 40 41 42 44 45 46 46 47 47 47 48 49 49 48 47 47 49 50 48 46 45 46 46 46 46 46 45 43 41 40 40 40 41 43 45 47 48 49 50 51 51 51 52 51 51 49 46 41
18 19 19 19 19 20 21 20 19 18 18 18 19 19 20 20 21 22 23 23 24 24 24 24 25 27 28 29 31 33 35 37 38 38 39 40 40 41 41 43 44 46 46 47 47 47 47 47 47 47 46 46 47 48 47 45 44 44 45 46 46 45 44 43 41 40 40 40 40 42 44 46 47 48 49 50 51 52 52 52 52 51 48 44 37
18 20 20 19 20 21 21 19 18 18 18 18 19 20 20 21 22 23 23 24 24 24 25 26 27 29 30 31 33 35 37 39 39 40 40 41 41 41 42 43 44 45 46 47 47 47 47 46 45 45 45 46 46 46 44 43 43 44 44 44 44 43 42 41 40 39 39 40 41 43 45 47 47 48 49 50 51 52 52 52 52 50 46 40 35
19 21 21 20 20 21 20 19 18 18 18 18 19 20 21 22 23 23 24 24 24 25 26 28 29 30 32 33 35 37 39 40 41 41 41 42 42 42 43 44 45 45 46 47 47 46 45 45 45 44 44 44 43 42 41 41 42 43 42 42 42 41 40 39 39 39 39 40 42 44 46 47 48 48 49 50 50 51 52 52 51 49 44 38 33
19 20 21 21 21 21 20 19 19 18 18 19 20 21 21 22 23 24 24 24 25 26 28 29 31 32 34 35 36 38 40 41 42 42 42 42 42 43 44 44 45 45 46 46 46 46 45 44 44 44 43 42 41 39 39 40 41 41 41 40 40 39 38 38 38 39 40 41 43 45 47 48 48 48 48 49 49 50 51 51 50 47 42 38 34
18 20 21 21 22 22 21 20 19 18 18 19 20 21 22 23 24 24 24 25 26 28 30 32 33 34 36 36 37 39 40 42 43 43 43 43 43 44 44 45 45 45 46 46 45 44 45 44 43 43 42 40 38 37 38 40 40 39 38 38 38 38 38 38 38 39 41 43 45 46 47 48 48 48 48 48 49 49 50 51 49 45 40 38 35
18 20 21 21 22 22 21 21 20 19 20 20 21 22 24 24 24 25 25 26 28 30 32 34 36 37 37 37 37 39 40 42 43 43 43 43 43 44 45 45 45 45 45 45 44 43 43 43 42 42 41 38 37 37 38 39 39 38 37 36 37 37 37 38 39 40 42 44 45 46 47 48 48 48 48 48 48 49 50 50 48 44 39 37 35
18 20 21 21 21 21 21 21 20 20 21 22 22 24 25 25 25 26 27 28 30 32 34 36 37 37 35 34 35 37 39 41 42 42 43 43 44 44 44 44 44 45 45 44 42 42 42 42 42 41 39 36 36 37 38 38 39 38 37 36 37 37 38 38 39 41 43 45 46 47 47 48 47 47 48 48 48 49 50 49 46 42 39 36 34
18 19 20 20 20 21 21 21 21 22 23 23 24 26 26 27 27 27 29 31 33 34 34 34 33 31 30 31 33 35 37 39 40 41 42 43 43 43 44 44 44 44 44 42 41 41 41 41 41 39 36 35 35 36 38 38 38 38 37 36 36 37 38 39 39 41 43 45 46 47 47 47 47 48 48 48 49 49 49 47 43 40 38 36 33
18 19 19 18 19 20 21 22 22 23 24 25 27 28 28 28 28 30 31 32 32 31 30 30 29 29 29 30 31 33 35 37 38 40 41 42 42 42 43 43 44 43 42 40 40 40 41 40 40 38 35 34 35 36 38 38 38 37 35 35 36 37 38 39 40 41 43 45 46 47 47 47 47 48 48 48 49 49 49 46 41 37 36 35 34
18 19 19 19 20 21 21 22 22 23 25 26 28 28 28 29 31 31 30 29 28 28 28 28 29 29 30 30 31 32 34 36 38 39 40 40 41 41 42 43 43 41 39 39 40 40 41 40 38 36 34 34 35 36 37 38 37 37 35 34 35 36 37 38 40 42 43 45 46 47 47 47 47 48 48 49 49 49 49 45 40 36 34 34 34
19 20 20 21 21 21 22 22 23 24 25 26 28 28 28 30 32 30 27 28 29 29 29 28 29 30 30 31 32 33 34 36 37 38 39 39 40 40 41 42 41 39 38 39 40 40 40 40 37 34 33 34 35 36 37 37 36 36 35 34 33 34 36 39 40 41 43 45 46 47 47 47 48 49 49 49 50 50 49 44 39 35 33 32 33
21 21 21 21 21 21 22 22 22 24 25 26 28 28 29 30 30 28 28 30 31 30 29 29 30 30 31 32 32 33 34 35 36 37 37 38 39 40 41 40 38 37 38 39 39 40 40 38 35 33 33 34 35 35 35 35 34 34 34 33 32 33 36 40 41 40 41 44 45 47 48 48 48 49 49 50 51 51 49 44 39 36 34 33 33
21 21 20 21 21 21 21 22 23 24 25 27 29 29 29 30 29 30 31 31 30 30 30 30 30 31 31 32 32 33 33 34 34 35 36 37 38 39 39 38 37 36 38 38 38 39 39 37 34 32 32 33 34 34 34 33 33 33 33 32 32 34 37 41 42 41 41 43 45 47 48 49 49 49 50 51 52 52 49 44 40 37 35 35 36
22 21 21 21 22 22 22 23 24 25 27 28 29 28 29 29 29 30 31 31 30 30 30 30 31 31 32 32 31 31 32 33 33 34 35 36 37 38 37 36 35 36 37 37 38 38 38 35 32 31 32 33 34 34 33 32 33 32 32 31 33 36 39 40 41 41 41 43 45 47 49 50 50 50 51 52 53 52 49 44 40 38 38 39 42
22 22 22 23 23 23 24 24 25 26 27 29 28 28 28 29 30 30 31 31 30 30 31 31 31 32 32 31 30 30 31 32 33 34 35 36 36 36 35 34 35 36 37 37 37 38 36 33 31 31 32 33 34 33 32 32 31 31 32 33 35 38 40 40 39 39 41 43 46 48 50 50 51 51 51 53 53 52 49 44 41 40 41 43 45
23 23 23 24 24 25 25 25 26 26 27 28 28 28 29 29 30 31 32 31 30 31 31 30 31 32 31 29 29 30 31 33 34 34 35 35 36 35 34 33 34 35 36 36 37 37 35 32 31 31 32 32 33 33 32 32 31 31 33 34 36 39 41 40 39 39 42 44 47 49 50 51 51 50 51 53 54 52 49 45 42 42 44 46 49
24 23 24 25 25 26 26 26 26 26 26 27 28 29 30 31 32 32 32 31 30 31 31 30 31 32 30 29 29 31 32 33 34 34 34 35 35 34 32 33 34 34 35 36 36 36 33 31 31 31 31 32 32 32 33 33 32 32 33 35 37 39 40 41 41 42 43 45 47 49 50 52 52 51 51 54 54 53 49 45 44 46 48 51 55
25 24 25 25 26 26 27 26 26 26 27 28 29 30 31 32 32 32 32 30 30 31 31 31 32 31 29 29 30 32 33 33 33 34 34 35 34 32 31 32 33 34 35 36 35 34 32 30 30 31 31 31 31 32 33 33 33 33 34 34 37 39 41 43 44 44 44 46 47 49 50 52 52 51 52 54 55 54 50 46 47 49 52 55 56
26 25 26 26 27 27 26 26 26 26 28 29 31 31 32 32 32 32 31 30 30 32 32 31 31 30 29 29 31 33 33 33 33 34 34 34 33 31 31 31 33 34 35 35 34 32 31 30 30 30 30 31 31 32 33 33 34 34 35 36 38 40 42 44 45 44 45 46 48 50 51 52 53 52 52 54 55 54 49 46 48 52 55 57 54
27 27 27 27 27 26 25 26 27 27 28 31 32 33 33 32 31 30 29 29 31 32 32 32 30 29 29 30 32 33 33 33 34 34 34 34 32 31 30 31 33 34 35 35 33 31 30 30 30 30 31 31 32 33 34 34 34 35 35 37 39 40 42 43 43 43 44 46 48 50 51 52 53 53 53 54 55 54 49 47 50 53 57 56 51
28 28 28 27 27 26 25 26 27 27 29 32 34 34 34 33 32 30 28 29 31 33 34 32 29 28 30 31 31 32 33 34 34 34 34 32 31 29 29 30 33 34 35 34 32 30 30 30 30 31 31 31 32 33 34 35 35 35 36 37 38 40 41 42 42 43 44 46 48 50 51 52 53 54 54 54 55 53 49 48 50 54 56 54 49
28 27 27 27 26 25 25 26 27 28 31 33 35 35 35 35 32 28 26 28 31 33 32 29 27 29 31 31 31 32 34 34 34 34 33 31 29 27 28 30 33 34 34 33 31 30 30 31 31 30 30 30 31 33 35 36 36 36 37 37 38 40 42 42 43 44 44 45 48 50 51 52 53 55 54 54 54 52 49 49 50 53 54 50 46
26 26 26 26 25 25 26 28 30 31 33 34 35 35 37 37 32 26 25 29 31 30 29 29 30 32 33 32 33 34 34 34 34 33 32 30 28 26 28 31 32 34 34 32 31 30 31 31 30 29 29 29 30 33 35 37 37 38 38 39 40 41 42 43 44 44 44 45 47 50 51 52 53 55 56 56 55 53 51 50 50 53 53 49 44
Wind_Direction
330 320 314 316 317 318 317 316 318 319 317 318 318 311 303 295 291 290 288 290 290 293 304 308 304 304 302 302 304 304 307 312 315 316 316 316 318 320 321 321 320 321 322 323 324 324 325 325 326 327 328 329 330 329 329 328 327 325 324 323 322 320 319 317 316 315 314 312 311 310 310 309 308 306 305 305 304 302 297 292 288 286 286 285 284
327 320 315 315 316 317 318 319 320 319 317 320 321 314 303 296 294 289 290 293 292 299 306 308 305 302 302 303 303 303 307 309 309 309 311 314 316 318 319 318 319 320 321 322 323 324 325 325 326 327 328 329 329 329 328 327 326 325 324 323 322 320 318 317 315 315 314 312 311 310 310 309 308 307 305 305 305 304 301 297 293 288 287 285 283
326 321 316 315 316 317 319 320 321 319 317 321 322 317 309 306 298 284 291 293 292 310 313 311 308 304 301 300 297 297 302 303 302 305 310 314 316 318 319 319 319 320 322 323 324 324 324 325 326 327 329 329 328 327 327 326 325 324 323 321 320 319 317 316 314 313 313 312 311 311 310 309 308 306 305 305 304 304 302 300 298 293 290 287 284
325 319 315 315 316 317 319 321 322 319 319 321 320 316 317 323 312 295 306 294 287 313 319 312 307 302 298 295 294 295 295 296 300 306 311 315 317 318 318 319 319 320 323 323 323 322 323 324 326 328 328 328 327 326 325 324 323 322 321 319 318 317 315 314 312 311 311 311 310 310 309 308 306 305 304 304 303 303 302 301 299 297 292 290 288
322 317 312 315 318 320 320 320 320 322 322 320 318 314 317 327 323 311 315 305 295 314 322 312 302 297 293 292 296 299 299 298 304 310 313 315 315 317 318 320 321 321 322 321 321 322 323 325 326 327 326 326 325 324 324 323 322 320 318 317 315 314 313 312 311 310 309 309 308 307 307 306 304 303 301 301 301 301 300 299 298 297 294 291 289
320 315 313 316 321 322 320 320 324 326 325 323 320 311 307 313 314 307 308 307 303 314 320 307 295 290 291 293 296 301 304 305 308 312 314 315 316 318 321 321 321 320 319 320 322 323 325 326 326 325 324 324 324 324 323 321 320 318 316 315 313 312 311 310 309 308 307 306 306 305 304 303 302 301 300 299 298 297 297 296 295 295 294 292 289
317 313 313 315 319 322 320 323 328 326 323 323 320 312 304 305 308 304 303 304 305 313 313 301 292 289 290 293 295 302 307 309 311 311 313 316 319 320 320 319 318 318 319 321 324 324 325 324 323 323 323 324 323 323 321 320 318 316 315 313 311 310 309 308 307 305 304 303 303 302 301 300 299 298 298 297 296 295 294 293 292 292 292 291 290
315 312 312 314 317 319 319 322 324 321 317 318 317 312 307 308 313 309 305 306 309 313 306 293 292 293 295 296 298 303 307 310 313 315 316 318 319 318 316 315 316 318 321 322 323 322 322 322 322 323 323 323 323 322 321 319 317 315 314 312 310 309 307 306 305 303 302 301 300 299 298 297 296 295 295 294 294 293 292 291 290 289 289 289 288
314 313 313 314 317 319 319 319 319 317 314 314 310 304 303 309 314 308 305 308 310 310 301 288 286 289 294 296 300 305 308 312 315 316 318 317 316 316 316 318 320 322 322 322 321 321 321 321 322 323 323 323 322 322 321 319 317 315 314 312 310 308 307 305 303 302 300 299 297 296 296 295 294 294 293 292 292 291 290 290 289 288 287 286 286
314 314 314 314 316 318 317 317 316 314 311 309 303 299 301 306 307 303 303 307 304 301 296 289 285 285 288 293 301 308 311 313 313 315 315 314 315 317 319 321 322 322 322 322 321 321 321 322 323 323 322 322 322 322 321 320 318 316 315 313 311 309 307 305 303 301 299 298 297 296 295 294 293 293 292 292 291 290 289 288 287 286 285 284 283
313 314 315 314 314 315 314 314 314 310 308 308 306 304 306 306 304 303 304 303 293 287 288 289 288 288 292 299 307 309 309 310 312 313 314 315 317 319 321 322 323 323 322 321 321 321 321 322 322 322 322 322 322 322 321 320 319 318 317 315 314 311 309 306 304 303 301 300 298 297 296 294 293 292 291 291 290 289 288 287 286 285 284 283 281
313 315 314 312 310 311 311 312 312 310 309 310 311 310 309 307 305 306 309 298 278 277 279 281 285 291 299 305 306 305 306 309 312 314 315 317 319 320 322 323 323 322 321 320 319 319 320 320 321 321 321 321 321 322 322 322 321 320 318 316 314 312 310 308 306 305 304 302 301 299 298 296 294 293 292 290 289 289 287 286 285 283 282 281 280
312 314 312 309 307 306 308 311 312 311 310 310 311 309 305 304 304 305 306 282 269 268 266 272 283 292 298 301 302 304 308 311 313 315 316 318 320 322 323 323 322 321 319 318 317 317 318 319 321 321 322 322 323 324 324 323 321 319 318 316 314 312 311 309 307 306 304 303 302 300 299 298 296 295 294 292 291 290 289 288 286 284 282 281 279
313 313 309 306 304 304 306 309 309 309 308 307 306 301 299 301 300 298 285 265 265 267 268 273 281 287 293 297 303 309 311 313 314 314 317 319 322 323 323 321 320 319 318 316 316 316 318 320 322 323 324 324 325 325 324 323 322 320 318 316 314 313 311 309 307 306 305 304 303 301 300 299 298 297 296 295 294 293 291 290 288 286 284 281 279
313 311 307 305 304 305 306 306 306 306 304 302 298 293 296 299 296 289 276 268 271 275 277 278 284 290 297 304 310 312 311 311 313 315 319 321 322 322 321 319 318 317 316 315 315 316 317 320 323 325 325 325 324 324 324 324 322 320 318 316 314 312 311 309 308 306 306 305 304 303 302 301 300 299 297 296 294 293 291 290 288 286 284 282 280
313 309 306 305 306 307 306 304 304 303 301 297 292 291 297 297 292 285 277 276 281 287 289 291 296 300 304 310 312 312 310 311 314 317 319 320 320 320 318 318 316 315 315 315 315 316 318 322 323 324 325 324 323 324 325 324 322 319 317 316 314 313 311 309 308 307 306 306 305 304 303 301 300 298 297 295 294 292 291 289 287 285 284 282 279
308 305 304 305 306 306 305 304 303 300 298 295 292 294 298 295 290 285 283 285 289 295 298 299 301 303 305 308 308 307 307 310 314 317 318 318 318 317 316 316 315 314 314 315 316 317 319 321 323 324 324 324 323 323 323 322 321 320 318 317 315 314 312 310 308 307 307 306 305 304 302 301 299 297 296 295 293 292 290 289 288 286 284 282 280
302 301 303 305 306 305 303 302 299 295 292 291 293 295 297 295 291 289 290 293 295 296 298 300 301 301 303 303 303 303 304 308 312 315 317 317 316 315 315 315 314 314 315 316 317 318 319 321 322 324 324 322 320 319 321 321 322 321 319 318 316 314 312 310 309 308 307 306 305 304 302 301 299 298 297 295 294 293 291 290 289 287 285 283 281
300 302 304 306 304 302 299 296 293 287 283 286 291 293 292 290 288 289 292 295 296 296 297 299 300 301 301 302 302 303 305 308 312 314 317 317 315 314 315 315 315 316 316 317 318 318 319 321 322 322 322 320 317 317 320 322 323 321 319 317 315 313 312 310 309 308 308 307 306 304 302 301 300 298 297 295 294 293 293 291 289 287 285 283 281
301 302 303 302 300 298 294 290 285 278 277 282 286 285 284 285 286 289 291 294 296 297 297 298 299 300 302 302 303 304 306 309 312 314 315 316 316 315 314 315 317 317 317 317 317 317 318 320 321 321 320 318 317 318 322 323 322 320 318 316 314 313 312 310 310 309 308 307 306 305 303 302 300 299 297 296 295 295 293 292 289 287 285 285 284
301 301 299 297 296 294 291 286 278 273 276 279 278 279 281 284 287 289 290 292 294 296 297 297 299 301 302 302 303 305 307 310 311 312 314 315 316 316 315 316 318 318 318 317 316 316 318 320 320 320 320 319 319 320 321 321 320 319 317 315 314 313 312 311 310 310 309 308 307 306 305 303 302 301 300 300 299 298 296 295 292 289 287 287 289
300 299 296 293 292 290 287 281 274 274 277 278 278 280 282 284 286 288 289 291 292 294 295 298 301 302 301 301 303 306 309 310 311 312 313 313 314 315 316 317 317 317 316 316 315 315 317 318 319 320 319 319 318 318 318 318 318 318 317 315 314 313 313 312 311 311 311 310 309 307 306 305 304 304 304 303 302 301 300 299 297 295 293 291 292
299 298 293 290 289 286 283 277 275 277 279 279 280 281 282 283 284 286 288 290 291 293 296 299 301 300 300 301 304 307 309 310 311 312 313 311 311 314 315 316 316 315 315 314 313 314 316 317 318 318 317 316 314 314 316 318 318 318 317 316 315 314 313 312 312 312 312 311 310 308 307 306 306 307 307 306 305 304 303 303 302 301 300 298 295
297 296 292 289 285 281 279 275 276 278 278 278 279 280 282 282 283 285 287 289 291 294 296 298 299 298 299 302 305 307 308 310 311 312 311 311 312 313 315 315 315 314 314 313 313 314 314 315 316 316 315 313 311 314 317 318 318 318 317 316 315 314 313 313 313 313 313 312 310 309 308 308 309 309 309 309 309 308 307 307 306 305 304 302 298
296 294 289 286 282 277 275 276 276 276 276 277 278 280 281 281 282 285 287 289 292 294 296 297 297 298 299 303 305 307 308 310 310 310 310 311 312 313 313 314 314 313 313 314 314 313 314 314 314 314 313 312 312 315 318 318 318 317 316 315 315 314 314 314 314 314 313 312 310 310 310 311 312 312 312 312 312 311 310 309 309 308 307 305 301
296 292 284 281 279 275 274 276 276 274 274 276 277 278 279 281 283 286 288 290 292 295 296 296 297 298 301 303 305 307 308 308 309 309 310 311 311 312 312 312 312 312 313 313 313 313 313 314 314 314 314 312 312 314 317 317 317 316 315 315 314 314 314 315 315 315 314 312 312 312 313 314 314 315 314 314 312 311 311 310 310 309 308 307 303
293 289 281 277 277 275 274 275 274 273 273 274 276 277 280 282 285 287 289 292 294 296 296 296 298 299 302 303 304 306 307 307 308 309 310 310 311 311 311 310 310 311 312 312 313 313 313 314 314 315 314 313 312 314 316 317 316 316 315 315 315 315 315 316 316 316 314 313 313 313 314 315 315 316 315 314 313 312 312 312 312 311 310 308 303
289 285 280 276 276 275 274 274 272 272 272 273 276 278 281 284 286 289 293 295 296 296 296 297 299 301 302 303 303 305 306 307 308 309 310 311 310 310 310 309 310 311 312 312 312 312 313 315 316 315 315 313 312 314 316 317 316 316 315 315 315 316 317 318 317 316 315 314 314 314 314 315 316 316 315 315 314 314 314 314 313 312 311 309 303
286 282 278 276 276 275 274 273 271 270 272 274 277 280 283 286 289 293 295 296 296 296 298 300 301 302 302 302 302 305 306 307 308 309 310 310 310 309 309 310 310 310 311 311 312 313 314 315 316 316 315 314 314 316 316 317 316 315 315 316 317 318 319 318 317 315 314 313 314 315 315 316 317 317 316 316 316 315 315 314 313 313 311 309 303
285 280 277 276 275 274 273 271 269 269 271 276 280 283 287 290 293 295 295 296 297 299 301 303 303 302 302 302 303 304 306 307 307 309 310 309 309 309 309 310 310 310 310 311 312 314 316 316 316 315 315 315 316 317 316 316 316 316 316 317 318 319 318 317 315 313 313 314 315 317 317 317 318 318 317 317 316 315 315 314 314 313 312 309 302
285 280 277 275 273 273 272 268 266 268 273 279 283 287 290 292 293 294 295 298 301 304 304 303 303 302 302 302 303 304 306 307 307 307 308 309 309 309 309 310 310 309 310 311 312 314 316 317 316 315 316 317 317 317 316 316 317 317 318 319 319 318 317 315 314 313 314 316 318 319 319 319 320 319 318 317 316 316 316 316 315 314 312 309 302
285 280 276 272 270 271 269 265 264 269 275 281 286 290 292 292 293 295 297 301 305 305 304 303 302 302 301 302 303 304 304 305 305 306 307 307 307 308 308 309 309 310 311 313 314 315 316 316 316 317 318 318 317 317 317 317 317 318 319 319 318 316 315 314 314 315 317 319 320 321 321 321 320 319 318 318 317 317 317 317 316 314 312 308 304
283 279 275 269 267 267 265 264 266 271 278 283 288 291 291 292 294 297 299 303 304 303 302 302 301 300 300 301 302 302 302 302 304 305 305 306 307 307 308 308 309 310 311 314 315 315 316 316 317 319 320 320 318 317 318 318 318 319 319 318 317 316 315 315 317 318 320 321 323 322 321 321 321 320 320 319 319 318 318 318 316 314 311 308 305
279 277 273 268 265 264 263 264 267 273 278 283 287 290 291 293 295 297 300 301 301 301 301 300 300 300 300 301 301 300 300 301 302 303 304 305 306 307 307 308 309 310 312 314 315 315 316 318 320 321 321 320 318 317 318 319 320 321 320 318 317 317 317 318 319 321 322 324 324 323 322 322 322 322 321 320 320 319 320 319 316 313 310 308 305
275 273 272 268 265 263 263 264 268 273 277 282 286 289 291 293 295 297 298 298 298 299 300 301 301 301 301 301 300 298 298 299 301 302 303 305 306 306 308 309 309 311 313 314 314 316 318 319 321 322 320 318 317 318 320 321 321 322 321 319 319 319 319 320 321 323 324 325 324 324 324 324 324 323 322 321 321 321 321 320 316 311 309 308 305
274 271 269 267 264 263 263 265 269 273 277 282 285 287 290 293 295 297 298 298 298 299 300 302 303 303 302 301 299 297 297 298 300 301 303 304 305 306 308 308 309 311 313 313 314 316 319 320 321 321 319 318 318 319 321 322 322 322 322 321 320 321 321 322 323 325 326 326 326 326 326 326 325 325 323 323 322 322 321 320 316 311 308 307 304
274 270 269 267 265 264 265 268 271 275 279 281 284 287 292 295 297 299 299 300 300 300 301 304 304 303 303 302 300 298 298 299 300 301 303 304 305 307 307 308 310 312 312 313 315 317 319 321 320 319 319 319 320 321 322 323 323 323 323 322 322 323 323 324 324 326 328 328 329 329 328 328 327 326 325 324 323 323 323 321 317 311 307 305 303
273 269 268 267 267 267 269 272 275 278 280 282 286 290 295 298 299 298 300 302 302 302 304 304 304 305 305 304 303 302 301 300 300 301 303 304 306 306 307 308 310 312 312 314 317 319 320 321 320 319 319 320 322 323 323 323 323 324 324 324 324 324 324 324 326 328 331 331 331 331 331 330 329 327 326 325 324 325 324 322 318 312 308 304 301
272 268 267 267 269 271 273 275 277 280 283 286 290 293 296 298 297 297 301 304 305 305 306 306 307 307 307 306 305 303 301 300 301 302 304 305 306 306 307 308 310 311 313 315 318 319 321 322 321 320 320 322 324 324 324 325 325 324 323 323 323 323 325 327 329 331 334 334 334 333 333 332 331 329 327 327 327 327 326 323 318 314 310 305 301
271 270 271 271 273 274 276 278 281 284 287 289 291 293 296 297 297 298 303 306 306 307 307 308 308 307 306 306 304 302 301 301 302 303 304 305 306 307 308 309 310 311 314 317 319 320 322 322 321 320 321 323 325 326 325 325 325 323 321 321 322 325 329 332 333 335 337 337 336 335 335 335 333 330 329 329 329 329 327 325 321 317 314 311 307
271 272 274 275 276 278 279 282 284 286 288 289 291 295 297 298 298 300 303 304 306 307 308 307 306 305 305 305 303 302 302 302 302 304 306 307 307 308 309 309 310 312 316 318 320 321 322 322 321 320 322 324 326 326 325 325 323 320 319 323 328 332 334 335 336 337 339 339 338 337 337 337 335 333 332 332 331 330 329 328 325 322 320 317 315
269 271 273 275 277 280 282 284 286 287 288 289 293 296 297 297 297 299 301 302 304 306 305 305 304 303 304 304 302 302 302 303 304 306 308 308 308 308 309 309 311 314 318 320 321 322 322 321 320 321 323 325 326 326 326 325 321 319 322 329 334 336 337 337 337 338 340 341 340 339 339 339 337 336 335 333 332 332 332 331 329 327 325 323 321
266 269 272 274 277 280 283 284 286 288 289 291 294 296 296 296 296 297 299 301 303 304 303 303 302 302 303 303 302 302 304 305 308 309 310 309 309 309 309 310 312 316 319 321 322 322 321 320 320 321 323 325 327 327 326 324 322 324 330 336 338 339 338 337 337 339 341 342 342 341 341 341 340 338 335 334 334 334 334 334 333 331 330 328 325
265 267 271 274 278 281 284 286 287 288 289 291 293 295 295 295 295 296 298 300 301 301 301 301 301 302 303 303 303 305 307 308 310 310 310 309 309 309 309 311 314 317 320 322 322 322 321 320 319 321 324 327 328 328 326 325 328 333 337 340 341 340 339 338 339 341 342 342 343 342 342 342 342 339 337 336 337 337 337 337 336 334 334 332 329
266 269 273 277 281 283 285 287 287 286 286 288 290 292 292 292 292 294 296 297 299 300 300 301 301 302 303 303 305 307 309 310 311 310 310 310 310 310 310 312 316 319 321 322 322 322 320 318 318 321 325 328 329 328 328 330 334 336 338 341 341 341 340 341 342 342 342 343 343 343 343 344 343 341 339 340 340 340 340 338 337 338 338 336 332
270 273 276 279 282 284 285 286 286 286 287 288 288 289 288 289 290 292 294 296 298 300 301 301 302 303 302 304 307 309 310 311 311 310 310 311 311 311 311 314 318 320 321 322 322 320 317 316 317 321 327 330 331 331 331 333 336 336 338 341 341 342 344 345 344 343 343 344 344 344 345 345 345 344 342 343 343 342 341 339 339 341 341 338 334
274 276 277 279 281 282 284 286 287 288 289 288 288 289 289 288 290 292 293 296 298 300 300 301 302 302 302 305 308 309 310 311 311 311 312 313 313 311 312 316 319 320 321 321 320 318 315 315 317 323 330 333 334 333 333 336 336 337 339 342 343 345 347 346 344 343 344 344 344 346 346 346 346 346 345 345 345 344 342 341 342 344 342 340 337
275 276 277 278 279 281 282 285 287 289 291 290 290 291 291 291 292 292 292 295 298 300 301 301 300 300 303 306 308 308 309 311 311 312 313 315 313 311 312 316 319 320 321 321 319 316 314 314 318 325 332 335 336 336 336 337 337 337 340 342 344 346 347 345 344 343 344 345 345 346 347 347 347 348 348 348 347 345 343 343 346 346 344 342 342
274 275 277 278 279 281 283 285 287 290 291 291 291 292 292 292 292 289 289 295 299 301 301 299 296 299 304 307 307 308 310 311 312 313 315 315 313 311 312 316 319 321 321 320 317 314 313 314 319 326 333 338 339 338 337 337 337 338 340 342 343 345 346 345 345 345 345 345 346 347 347 348 349 349 350 350 349 347 345 346 349 349 346 345 345
273 275 277 279 281 283 285 286 287 290 292 293 295 295 296 296 292 285 286 296 301 302 300 295 295 302 306 307 308 309 311 312 312 313 315 315 313 311 313 316 320 322 322 320 317 314 313 315 320 328 335 339 339 338 336 336 338 339 340 342 344 345 345 346 347 347 346 346 347 348 348 349 351 350 351 351 351 350 349 350 351 351 349 348 348
274 275 277 280 282 285 286 287 289 292 294 296 297 296 296 295 290 283 288 299 302 301 297 293 297 304 307 307 308 310 311 312 312 313 316 315 312 310 313 317 321 322 322 319 316 314 313 315 321 329 335 338 338 336 335 336 337 339 341 343 344 344 345 347 348 347 346 347 348 348 348 351 353 352 352 351 351 353 354 354 353 352 353 352 352
Height
5869 5868 5867 5866 5866 5865 5864 5863 5862 5861 5860 5859 5858 5857 5856 5856 5856 5855 5855 5854 5854 5854 5854 5854 5854 5853 5854 5854 5854 5853 5852 5852 5852 5851 5850 5850 5849 5848 5847 5846 5844 5843 5842 5841 5839 5838 5836 5834 5832 5831 5829 5827 5824 5821 5819 5817 5815 5812 5810 5808 5806 5804 5802 5800 5799 5797 5796 5794 5793 5792 5790 5789 5788 5787 5785 5784 5783 5782 5781 5780 5780 5779 5778 5777 5777
5867 5866 5865 5864 5864 5863 5862 5862 5861 5859 5858 5858 5857 5856 5855 5855 5855 5854 5853 5852 5852 5852 5852 5852 5853 5853 5852 5853 5853 5852 5851 5851 5851 5850 5849 5848 5847 5846 5845 5844 5843 5841 5840 5839 5837 5835 5834 5832 5830 5828 5826 5824 5821 5819 5816 5814 5811 5809 5807 5805 5803 5801 5799 5797 5795 5794 5793 5791 5790 5789 5788 5786 5785 5784 5783 5782 5781 5780 5778 5777 5777 5776 5775 5774 5774
5865 5864 5863 5862 5861 5860 5860 5860 5859 5858 5857 5856 5856 5855 5853 5853 5853 5853 5852 5851 5851 5850 5850 5850 5851 5851 5851 5852 5852 5852 5851 5850 5850 5849 5848 5847 5845 5844 5843 5842 5841 5840 5838 5837 5835 5833 5832 5830 5828 5825 5823 5821 5818 5816 5813 5811 5808 5806 5803 5801 5799 5798 5796 5794 5792 5791 5789 5788 5786 5785 5784 5783 5782 5781 5780 5779 5778 5777 5776 5775 5774 5773 5772 5771 5771
5862 5861 5860 5860 5859 5858 5858 5857 5857 5856 5855 5854 5854 5853 5852 5852 5852 5852 5851 5851 5852 5850 5848 5849 5849 5849 5849 5849 5850 5850 5850 5849 5848 5848 5847 5845 5844 5842 5841 5840 5839 5837 5836 5835 5833 5831 5829 5827 5825 5823 5820 5818 5816 5813 5810 5808 5805 5803 5801 5799 5797 5795 5793 5791 5789 5788 5786 5784 5783 5782 5781 5780 5779 5778 5777 5776 5775 5774 5773 5772 5771 5770 5769 5768 5768
5860 5859 5858 5858 5857 5856 5855 5855 5855 5854 5853 5853 5852 5852 5851 5851 5851 5851 5850 5850 5851 5849 5847 5848 5847 5847 5848 5847 5847 5847 5848 5848 5847 5846 5845 5845 5843 5841 5840 5838 5836 5835 5834 5833 5831 5829 5827 5825 5822 5820 5818 5815 5813 5810 5807 5805 5802 5800 5798 5796 5794 5792 5790 5788 5786 5785 5783 5781 5780 5778 5777 5776 5775 5774 5774 5773 5772 5771 5770 5769 5768 5767 5766 5765 5764
5858 5857 5856 5856 5855 5855 5854 5853 5853 5851 5851 5851 5851 5850 5850 5850 5850 5850 5849 5848 5848 5847 5846 5847 5846 5846 5846 5846 5845 5844 5845 5845 5844 5844 5843 5843 5842 5840 5839 5837 5834 5833 5831 5830 5829 5827 5824 5822 5820 5818 5815 5813 5810 5807 5804 5802 5799 5797 5795 5793 5791 5789 5787 5785 5783 5782 5780 5778 5777 5775 5774 5772 5771 5770 5769 5769 5768 5767 5766 5765 5764 5763 5763 5762 5761
5855 5854 5854 5854 5853 5853 5853 5852 5851 5850 5850 5849 5849 5848 5848 5848 5848 5848 5848 5847 5847 5845 5845 5845 5844 5843 5843 5844 5843 5843 5842 5842 5842 5841 5841 5840 5840 5839 5838 5836 5834 5832 5830 5827 5825 5823 5822 5820 5818 5815 5813 5810 5807 5804 5802 5799 5796 5794 5792 5790 5787 5786 5784 5782 5780 5778 5777 5775 5773 5772 5770 5769 5767 5766 5765 5764 5763 5763 5762 5761 5760 5759 5759 5758 5757
5854 5853 5852 5852 5852 5852 5851 5850 5850 5849 5849 5848 5846 5846 5845 5844 5844 5845 5846 5846 5844 5843 5843 5842 5841 5841 5841 5842 5842 5842 5841 5840 5839 5839 5838 5837 5837 5837 5836 5835 5833 5831 5829 5826 5824 5822 5819 5817 5815 5812 5810 5807 5804 5801 5799 5796 5793 5791 5788 5786 5784 5782 5780 5779 5777 5775 5773 5772 5770 5768 5766 5765 5763 5762 5761 5760 5759 5758 5757 5757 5756 5755 5754 5753 5753
5852 5851 5850 5850 5850 5849 5848 5848 5847 5847 5847 5847 5845 5844 5843 5842 5843 5844 5845 5844 5842 5841 5840 5840 5840 5840 5840 5840 5840 5840 5839 5839 5838 5837 5836 5834 5834 5833 5832 5831 5830 5828 5826 5824 5822 5820 5817 5815 5812 5809 5807 5804 5801 5798 5795 5793 5790 5788 5785 5783 5781 5779 5777 5776 5774 5772 5770 5768 5766 5764 5763 5761 5760 5758 5757 5756 5754 5754 5753 5752 5751 5750 5749 5749 5748
5850 5849 5848 5848 5848 5847 5846 5846 5845 5845 5845 5844 5844 5843 5842 5842 5842 5843 5843 5841 5839 5838 5838 5838 5838 5839 5839 5839 5839 5838 5838 5837 5837 5836 5835 5833 5832 5830 5829 5827 5826 5824 5822 5821 5819 5817 5814 5812 5809 5806 5803 5801 5798 5795 5792 5790 5787 5785 5783 5780 5778 5776 5774 5772 5770 5768 5766 5764 5763 5761 5759 5757 5756 5754 5753 5751 5750 5749 5748 5747 5746 5745 5744 5743 5743
5848 5847 5847 5846 5846 5845 5845 5844 5844 5843 5843 5842 5842 5841 5840 5840 5841 5841 5840 5839 5837 5836 5836 5837 5837 5837 5838 5838 5838 5837 5836 5836 5835 5834 5833 5831 5830 5828 5826 5825 5823 5821 5819 5818 5816 5814 5812 5809 5806 5803 5800 5797 5795 5792 5789 5787 5784 5782 5779 5777 5775 5773 5771 5769 5766 5764 5762 5760 5759 5757 5755 5753 5752 5750 5748 5747 5745 5744 5743 5742 5741 5740 5739 5738 5738
5846 5846 5845 5844 5844 5843 5843 5842 5842 5841 5841 5840 5839 5838 5838 5838 5839 5838 5838 5837 5836 5835 5836 5836 5836 5836 5836 5836 5836 5836 5835 5834 5833 5832 5831 5829 5827 5826 5824 5822 5821 5819 5817 5815 5813 5811 5809 5807 5804 5801 5798 5795 5792 5789 5786 5783 5780 5778 5776 5773 5771 5769 5767 5764 5762 5760 5758 5756 5754 5752 5751 5749 5747 5745 5744 5742 5740 5739 5738 5737 5736 5735 5734 5733 5732
5844 5844 5843 5842 5842 5842 5841 5840 5840 5839 5838 5838 5837 5837 5836 5836 5837 5836 5836 5835 5835 5835 5836 5836 5835 5835 5835 5835 5835 5834 5833 5832 5831 5830 5829 5827 5825 5823 5822 5820 5818 5817 5815 5813 5811 5809 5807 5804 5802 5798 5795 5792 5788 5785 5782 5780 5777 5774 5772 5770 5767 5765 5762 5760 5758 5756 5754 5752 5750 5748 5746 5744 5742 5740 5738 5737 5735 5733 5732 5731 5730 5729 5728 5727 5726
5842 5842 5842 5841 5840 5840 5840 5839 5838 5838 5837 5836 5836 5836 5835 5835 5835 5835 5835 5835 5835 5835 5835 5835 5835 5834 5834 5834 5833 5832 5831 5830 5829 5828 5826 5825 5823 5821 5820 5818 5816 5814 5812 5810 5808 5806 5803 5801 5798 5795 5791 5788 5785 5782 5779 5776 5774 5771 5768 5765 5763 5760 5758 5756 5753 5751 5749 5747 5745 5743 5741 5739 5737 5735 5733 5731 5729 5727 5726 5724 5723 5723 5722 5721 5720
5840 5840 5839 5839 5839 5838 5838 5837 5837 5837 5836 5835 5835 5835 5835 5834 5834 5835 5835 5835 5834 5834 5834 5834 5833 5833 5833 5832 5831 5830 5829 5828 5827 5826 5824 5822 5821 5819 5818 5816 5814 5812 5810 5808 5805 5803 5800 5797 5794 5791 5788 5784 5781 5778 5775 5772 5769 5767 5764 5761 5758 5756 5753 5751 5749 5746 5744 5742 5740 5738 5735 5733 5731 5729 5727 5725 5723 5721 5719 5718 5716 5715 5714 5713 5713
5838 5837 5836 5836 5836 5836 5836 5835 5835 5835 5834 5834 5833 5833 5833 5833 5833 5833 5833 5833 5833 5833 5832 5832 5831 5831 5830 5830 5829 5828 5826 5826 5825 5823 5822 5820 5819 5817 5816 5814 5812 5810 5807 5805 5803 5800 5797 5793 5790 5787 5784 5781 5777 5774 5771 5768 5765 5762 5760 5757 5754 5752 5749 5746 5744 5742 5739 5737 5735 5733 5730 5728 5726 5723 5721 5719 5717 5714 5712 5710 5709 5707 5706 5705 5705
5837 5835 5834 5834 5834 5833 5833 5833 5832 5832 5832 5832 5832 5832 5832 5832 5832 5832 5832 5832 5832 5831 5830 5830 5830 5829 5829 5828 5828 5826 5825 5824 5823 5821 5820 5818 5817 5815 5814 5812 5809 5807 5805 5802 5800 5796 5793 5790 5787 5783 5780 5777 5774 5771 5768 5765 5761 5758 5755 5752 5749 5747 5744 5741 5739 5737 5734 5732 5730 5728 5725 5723 5720 5718 5715 5712 5710 5708 5705 5703 5701 5699 5698 5696 5695
5836 5835 5834 5833 5833 5832 5832 5831 5831 5830 5830 5830 5830 5830 5830 5830 5830 5830 5830 5830 5830 5829 5829 5828 5828 5827 5827 5826 5826 5825 5824 5822 5821 5820 5818 5816 5814 5813 5811 5809 5806 5804 5801 5799 5796 5793 5790 5787 5783 5780 5777 5774 5771 5768 5764 5761 5757 5754 5751 5748 5745 5742 5739 5736 5734 5731 5729 5727 5725 5722 5720 5717 5714 5711 5708 5705 5703 5700 5698 5696 5694 5692 5690 5688 5687
5833 5833 5832 5832 5832 5831 5831 5830 5829 5829 5829 5828 5828 5828 5829 5829 5829 5829 5829 5828 5828 5828 5827 5826 5826 5825 5825 5824 5824 5823 5822 5820 5819 5818 5816 5814 5812 5809 5808 5806 5803 5800 5798 5795 5792 5789 5786 5783 5780 5776 5773 5771 5767 5764 5760 5757 5753 5750 5747 5744 5741 5738 5735 5732 5729 5726 5724 5721 5719 5716 5713 5710 5707 5704 5701 5698 5695 5693 5690 5689 5687 5685 5683 5681 5679
5830 5830 5830 5830 5830 5830 5829 5829 5828 5828 5828 5827 5827 5827 5827 5827 5827 5827 5827 5827 5826 5825 5825 5824 5824 5823 5822 5821 5821 5820 5819 5818 5817 5815 5814 5812 5810 5807 5804 5802 5800 5797 5794 5792 5789 5785 5782 5779 5776 5773 5769 5766 5763 5759 5755 5752 5749 5746 5743 5739 5736 5733 5730 5727 5724 5721 5718 5716 5713 5709 5706 5703 5700 5697 5694 5691 5688 5686 5684 5682 5680 5678 5677 5675 5672
5827 5827 5827 5827 5827 5828 5828 5827 5827 5826 5826 5826 5825 5825 5826 5826 5826 5826 5826 5825 5824 5823 5823 5822 5821 5820 5819 5818 5817 5817 5816 5815 5814 5812 5811 5809 5807 5804 5802 5799 5796 5793 5790 5788 5785 5781 5778 5775 5772 5769 5765 5761 5758 5755 5752 5749 5746 5742 5739 5735 5732 5729 5726 5722 5719 5716 5713 5709 5706 5702 5699 5696 5693 5690 5687 5684 5681 5679 5676 5674 5673 5671 5670 5668 5666
5825 5825 5824 5824 5825 5825 5825 5825 5825 5824 5824 5824 5824 5824 5824 5824 5824 5824 5824 5823 5822 5821 5821 5820 5819 5818 5817 5816 5815 5814 5813 5812 5810 5809 5807 5806 5804 5801 5799 5796 5793 5790 5788 5785 5782 5778 5774 5771 5768 5765 5761 5758 5754 5752 5749 5745 5742 5738 5734 5730 5727 5724 5721 5717 5713 5710 5707 5703 5699 5696 5692 5689 5686 5683 5680 5678 5675 5672 5669 5667 5666 5664 5662 5661 5659
5823 5822 5822 5822 5823 5823 5823 5823 5823 5822 5822 5822 5822 5822 5822 5822 5822 5822 5821 5821 5820 5819 5818 5817 5816 5815 5814 5813 5812 5811 5810 5808 5807 5805 5803 5802 5800 5798 5795 5792 5789 5786 5784 5782 5779 5775 5771 5768 5765 5762 5758 5755 5752 5748 5745 5741 5737 5733 5729 5725 5722 5719 5715 5712 5708 5704 5701 5697 5693 5689 5686 5683 5680 5678 5675 5672 5669 5666 5663 5661 5658 5656 5655 5653 5651
5820 5820 5819 5820 5821 5821 5821 5821 5821 5820 5820 5820 5820 5820 5821 5820 5820 5820 5819 5819 5818 5817 5816 5815 5814 5813 5812 5811 5810 5808 5807 5805 5804 5802 5800 5798 5796 5793 5791 5788 5786 5783 5780 5778 5775 5771 5768 5765 5762 5759 5755 5752 5748 5744 5740 5736 5732 5728 5724 5720 5717 5714 5710 5706 5702 5698 5695 5691 5687 5684 5681 5678 5675 5672 5669 5666 5663 5660 5657 5654 5651 5649 5647 5645 5643
5818 5818 5817 5818 5819 5819 5819 5819 5819 5818 5818 5818 5819 5819 5819 5818 5818 5817 5817 5816 5815 5814 5813 5812 5811 5810 5809 5808 5807 5806 5804 5803 5801 5799 5797 5794 5792 5789 5787 5784 5781 5779 5776 5774 5771 5767 5764 5761 5758 5755 5751 5747 5743 5739 5735 5731 5727 5723 5720 5716 5712 5709 5705 5701 5697 5693 5690 5686 5683 5679 5676 5673 5670 5667 5664 5660 5657 5654 5650 5647 5645 5642 5640 5637 5635
5816 5816 5816 5816 5817 5817 5817 5817 5817 5817 5817 5817 5817 5817 5816 5816 5816 5815 5814 5813 5812 5811 5811 5810 5809 5808 5807 5806 5805 5803 5802 5800 5798 5796 5793 5791 5789 5786 5783 5780 5777 5775 5772 5769 5766 5763 5760 5756 5753 5750 5746 5743 5739 5735 5731 5727 5723 5719 5715 5711 5707 5704 5700 5696 5692 5688 5685 5682 5678 5675 5672 5669 5665 5662 5658 5655 5651 5648 5644 5641 5638 5635 5632 5630 5627
5814 5814 5815 5815 5815 5815 5815 5815 5815 5815 5815 5815 5815 5814 5814 5814 5813 5812 5812 5811 5810 5809 5808 5807 5806 5805 5804 5803 5802 5801 5799 5797 5795 5793 5790 5788 5785 5782 5779 5776 5773 5771 5768 5765 5762 5759 5755 5751 5748 5745 5741 5738 5734 5730 5726 5722 5718 5714 5710 5706 5703 5699 5695 5691 5687 5683 5680 5677 5674 5671 5667 5664 5661 5657 5653 5649 5645 5641 5638 5635 5631 5628 5625 5622 5619
5812 5812 5813 5813 5813 5813 5813 5813 5813 5813 5813 5813 5813 5812 5812 5811 5811 5810 5809 5808 5807 5807 5806 5805 5804 5803 5802 5801 5799 5798 5796 5794 5792 5789 5787 5784 5782 5779 5776 5773 5769 5766 5763 5761 5758 5755 5751 5747 5743 5740 5736 5733 5729 5726 5721 5717 5713 5709 5705 5702 5698 5694 5690 5686 5682 5679 5676 5673 5670 5667 5663 5659 5656 5652 5648 5643 5639 5635 5631 5628 5624 5621 5618 5615 5612
5810 5810 5810 5811 5811 5811 5811 5811 5811 5811 5811 5811 5810 5810 5810 5809 5808 5808 5807 5806 5805 5804 5803 5802 5801 5800 5799 5798 5797 5795 5793 5791 5788 5786 5783 5780 5778 5775 5772 5769 5766 5762 5759 5756 5753 5749 5746 5743 5739 5735 5731 5728 5725 5721 5717 5713 5709 5705 5701 5697 5693 5689 5685 5681 5678 5675 5672 5669 5666 5663 5659 5655 5651 5647 5642 5638 5633 5629 5625 5621 5617 5614 5611 5608 5605
5808 5808 5808 5809 5809 5809 5809 5809 5809 5809 5809 5809 5808 5808 5807 5807 5806 5805 5804 5804 5803 5802 5801 5800 5799 5798 5796 5795 5793 5792 5789 5787 5785 5782 5779 5777 5774 5771 5769 5766 5762 5759 5756 5752 5749 5745 5741 5737 5735 5732 5727 5724 5720 5716 5712 5709 5705 5701 5697 5693 5688 5684 5681 5678 5675 5672 5669 5666 5662 5659 5654 5650 5646 5641 5637 5632 5628 5623 5619 5615 5611 5607 5604 5601 5599
5806 5806 5806 5807 5807 5807 5807 5807 5807 5807 5807 5806 5806 5805 5805 5804 5804 5803 5802 5801 5800 5799 5798 5797 5796 5795 5793 5792 5790 5788 5786 5783 5781 5778 5775 5773 5770 5767 5764 5761 5758 5755 5752 5748 5745 5742 5738 5733 5730 5727 5724 5720 5716 5713 5708 5705 5701 5697 5693 5689 5684 5681 5677 5674 5671 5668 5665 5661 5658 5654 5649 5645 5641 5636 5632 5627 5623 5618 5613 5609 5605 5601 5598 5595 5593
5804 5804 5803 5804 5804 5804 5805 5805 5804 5804 5804 5804 5803 5803 5802 5802 5801 5800 5799 5798 5797 5796 5795 5794 5793 5792 5790 5788 5786 5784 5782 5779 5777 5774 5771 5769 5766 5763 5760 5757 5754 5751 5748 5744 5740 5737 5735 5731 5727 5723 5720 5716 5712 5709 5706 5702 5698 5693 5689 5685 5681 5678 5675 5671 5668 5664 5661 5657 5653 5649 5644 5640 5635 5631 5626 5622 5617 5613 5608 5604 5599 5595 5592 5589 5587
5802 5801 5801 5801 5802 5802 5802 5802 5802 5802 5802 5801 5801 5800 5800 5799 5798 5798 5796 5796 5794 5793 5792 5791 5790 5788 5786 5784 5782 5780 5778 5775 5772 5770 5767 5764 5761 5759 5756 5753 5750 5747 5744 5740 5736 5732 5729 5727 5724 5720 5717 5713 5709 5705 5702 5699 5694 5690 5686 5682 5678 5675 5672 5668 5664 5660 5656 5652 5648 5644 5639 5635 5630 5626 5621 5616 5612 5608 5603 5598 5593 5589 5586 5583 5581
5799 5799 5798 5799 5799 5799 5800 5800 5800 5800 5799 5799 5798 5798 5797 5796 5796 5794 5793 5792 5791 5790 5789 5787 5786 5784 5782 5780 5778 5776 5773 5771 5768 5766 5763 5760 5757 5754 5752 5749 5746 5743 5739 5736 5732 5728 5725 5722 5720 5716 5712 5709 5705 5702 5699 5695 5691 5687 5683 5679 5675 5672 5668 5664 5661 5657 5652 5648 5644 5639 5634 5630 5625 5620 5616 5611 5607 5602 5598 5593 5588 5584 5581 5578 5575
5797 5796 5796 5796 5796 5797 5797 5797 5797 5797 5796 5796 5795 5794 5794 5793 5792 5791 5790 5789 5788 5787 5785 5784 5782 5780 5778 5776 5774 5771 5769 5766 5764 5761 5759 5756 5753 5750 5747 5745 5741 5738 5735 5732 5729 5725 5722 5718 5716 5713 5709 5705 5702 5699 5695 5691 5687 5684 5680 5676 5672 5668 5664 5661 5657 5653 5648 5644 5639 5635 5629 5625 5620 5615 5610 5606 5601 5597 5592 5587 5583 5578 5575 5573 5570
5794 5794 5794 5794 5794 5794 5794 5794 5794 5794 5793 5793 5792 5791 5790 5789 5788 5787 5786 5785 5784 5783 5782 5780 5778 5775 5773 5772 5769 5767 5765 5762 5760 5757 5755 5752 5749 5746 5743 5740 5737 5734 5731 5728 5725 5722 5719 5715 5712 5709 5706 5703 5699 5696 5692 5688 5684 5680 5677 5673 5669 5665 5661 5657 5654 5650 5645 5639 5635 5630 5625 5620 5615 5610 5605 5601 5596 5592 5587 5582 5578 5573 5570 5567 5565
5791 5791 5791 5791 5791 5791 5791 5791 5791 5791 5790 5789 5788 5787 5786 5786 5785 5784 5783 5782 5781 5779 5778 5776 5774 5772 5770 5768 5765 5763 5761 5758 5756 5753 5751 5748 5745 5742 5739 5736 5733 5730 5727 5724 5722 5719 5716 5713 5709 5705 5702 5699 5696 5692 5688 5685 5681 5677 5674 5670 5666 5662 5658 5654 5650 5646 5642 5635 5630 5626 5620 5615 5610 5605 5600 5596 5591 5587 5582 5577 5572 5568 5565 5562 5560
5788 5788 5788 5788 5788 5788 5788 5788 5788 5787 5786 5785 5784 5784 5783 5782 5781 5780 5780 5779 5777 5776 5774 5772 5770 5768 5766 5764 5762 5759 5757 5754 5752 5749 5747 5744 5741 5738 5736 5732 5729 5726 5723 5721 5718 5715 5712 5709 5706 5702 5698 5696 5693 5689 5685 5681 5677 5674 5671 5668 5664 5659 5655 5651 5647 5643 5638 5631 5626 5621 5617 5611 5606 5601 5596 5591 5586 5581 5576 5571 5567 5563 5560 5557 5554
5785 5785 5785 5785 5785 5785 5785 5785 5784 5783 5782 5782 5781 5780 5780 5779 5777 5776 5776 5775 5773 5772 5770 5768 5766 5764 5762 5760 5758 5755 5753 5751 5748 5746 5743 5741 5738 5735 5732 5728 5725 5723 5720 5717 5714 5711 5708 5705 5701 5698 5695 5692 5689 5685 5681 5677 5674 5670 5668 5666 5662 5657 5652 5648 5644 5639 5634 5628 5622 5617 5613 5608 5602 5596 5591 5586 5581 5576 5570 5566 5561 5558 5555 5551 5548
5782 5782 5782 5782 5782 5782 5782 5782 5781 5780 5779 5778 5777 5777 5776 5775 5774 5773 5772 5770 5769 5768 5766 5764 5762 5760 5758 5756 5754 5752 5749 5747 5745 5742 5740 5737 5734 5731 5728 5725 5722 5719 5716 5714 5710 5707 5704 5701 5697 5694 5692 5689 5686 5682 5678 5675 5671 5668 5665 5662 5659 5655 5649 5644 5639 5635 5631 5625 5619 5614 5609 5604 5598 5592 5587 5581 5576 5570 5565 5560 5555 5552 5548 5545 5543
5779 5779 5780 5780 5780 5780 5779 5778 5778 5777 5776 5775 5774 5774 5773 5772 5770 5769 5768 5767 5765 5764 5762 5760 5759 5756 5754 5752 5750 5748 5745 5743 5741 5738 5736 5733 5730 5727 5724 5721 5718 5716 5713 5710 5707 5703 5700 5697 5694 5691 5688 5686 5683 5680 5676 5672 5669 5666 5662 5659 5655 5650 5646 5641 5635 5631 5628 5623 5617 5611 5605 5601 5595 5588 5582 5576 5571 5565 5559 5554 5549 5546 5542 5539 5536
5776 5777 5777 5777 5777 5777 5776 5775 5775 5774 5772 5771 5771 5770 5769 5768 5767 5766 5764 5763 5762 5760 5758 5757 5755 5753 5750 5749 5746 5744 5742 5739 5737 5734 5732 5729 5726 5723 5720 5717 5715 5712 5710 5707 5703 5700 5697 5694 5692 5689 5685 5683 5680 5676 5673 5669 5666 5663 5659 5655 5651 5647 5642 5637 5633 5628 5624 5620 5614 5608 5602 5597 5591 5584 5578 5572 5566 5560 5554 5549 5544 5540 5537 5533 5529
5774 5774 5774 5774 5774 5773 5772 5772 5771 5770 5769 5768 5767 5767 5765 5764 5763 5762 5761 5759 5758 5757 5755 5753 5751 5749 5747 5745 5743 5740 5738 5735 5733 5731 5728 5725 5722 5719 5716 5714 5712 5709 5706 5703 5700 5697 5693 5690 5688 5686 5683 5680 5677 5673 5670 5667 5663 5659 5655 5651 5647 5643 5638 5634 5630 5625 5621 5616 5611 5605 5599 5593 5587 5580 5574 5568 5561 5555 5549 5543 5538 5534 5530 5526 5521
5771 5771 5771 5771 5771 5770 5769 5769 5768 5767 5766 5764 5764 5763 5762 5760 5759 5758 5757 5755 5754 5753 5751 5750 5747 5745 5743 5741 5739 5736 5734 5731 5729 5727 5724 5721 5718 5715 5713 5711 5708 5705 5703 5700 5696 5693 5690 5687 5685 5683 5680 5677 5673 5670 5667 5664 5660 5656 5652 5648 5644 5640 5635 5630 5626 5622 5617 5613 5607 5602 5596 5590 5584 5577 5571 5564 5557 5550 5544 5538 5533 5529 5524 5518 5513
5768 5768 5768 5767 5767 5766 5766 5765 5764 5764 5763 5761 5760 5759 5758 5756 5755 5754 5753 5752 5751 5749 5747 5746 5743 5741 5739 5737 5735 5732 5730 5728 5725 5723 5720 5717 5714 5712 5709 5707 5705 5702 5699 5696 5693 5689 5687 5684 5682 5679 5677 5674 5670 5667 5663 5660 5656 5653 5649 5645 5641 5637 5632 5626 5622 5618 5614 5609 5604 5599 5593 5587 5581 5575 5568 5560 5553 5545 5539 5533 5528 5523 5517 5511 5504
5764 5765 5764 5764 5763 5763 5762 5761 5761 5760 5759 5758 5757 5756 5754 5753 5752 5751 5749 5748 5747 5745 5743 5741 5739 5737 5735 5733 5731 5728 5726 5724 5721 5719 5716 5713 5711 5708 5706 5703 5701 5698 5696 5693 5690 5686 5684 5681 5679 5676 5674 5671 5667 5663 5660 5656 5653 5649 5646 5642 5639 5634 5629 5623 5618 5614 5610 5605 5601 5596 5590 5584 5578 5572 5564 5557 5549 5542 5535 5529 5524 5517 5511 5504 5496
5761 5761 5761 5760 5760 5759 5758 5758 5757 5756 5755 5754 5753 5752 5750 5749 5748 5747 5746 5745 5743 5741 5739 5738 5736 5734 5732 5729 5727 5724 5722 5720 5718 5715 5712 5710 5707 5704 5702 5700 5698 5695 5692 5689 5686 5683 5681 5679 5676 5673 5670 5667 5664 5660 5656 5653 5650 5646 5642 5639 5635 5631 5627 5622 5616 5612 5607 5603 5597 5592 5587 5581 5575 5569 5562 5554 5546 5539 5532 5525 5519 5512 5505 5498 5490
5757 5757 5757 5756 5756 5756 5755 5754 5754 5753 5751 5749 5748 5747 5746 5745 5744 5743 5742 5741 5739 5737 5735 5734 5732 5730 5728 5726 5723 5720 5718 5716 5714 5711 5709 5706 5703 5701 5699 5697 5694 5692 5689 5686 5683 5680 5678 5676 5673 5670 5667 5664 5660 5656 5653 5650 5647 5644 5640 5636 5633 5629 5625 5621 5616 5610 5605 5601 5595 5589 5584 5578 5572 5566 5559 5551 5544 5536 5529 5522 5515 5507 5499 5491 5484
5753 5753 5753 5753 5752 5752 5752 5751 5750 5749 5747 5745 5743 5743 5741 5741 5740 5739 5738 5737 5735 5733 5731 5729 5728 5726 5724 5722 5720 5717 5715 5713 5710 5708 5705 5702 5700 5698 5696 5693 5691 5688 5686 5683 5680 5677 5675 5673 5670 5667 5664 5661 5657 5654 5651 5648 5645 5641 5638 5634 5630 5627 5623 5619 5614 5608 5603 5598 5593 5587 5582 5575 5569 5562 5556 5550 5542 5534 5526 5519 5512 5504 5496 5487 5479
5750 5749 5749 5749 5749 5749 5748 5747 5746 5745 5743 5741 5739 5738 5737 5736 5736 5735 5734 5733 5731 5728 5727 5725 5724 5722 5721 5718 5716 5713 5711 5709 5707 5704 5702 5699 5697 5695 5693 5690 5688 5685 5682 5680 5677 5675 5672 5670 5667 5664 5661 5658 5655 5652 5649 5646 5643 5639 5635 5631 5628 5624 5620 5616 5611 5606 5601 5596 5591 5585 5579 5573 5566 5559 5554 5548 5542 5533 5524 5516 5510 5503 5494 5485 5476
5746 5746 5746 5745 5745 5745 5744 5743 5742 5741 5739 5737 5736 5734 5733 5731 5731 5730 5730 5729 5727 5725 5723 5721 5720 5718 5717 5714 5712 5710 5708 5706 5703 5701 5698 5696 5694 5691 5689 5687 5685 5682 5679 5677 5674 5672 5669 5667 5664 5662 5659 5656 5654 5651 5648 5644 5640 5637 5633 5629 5625 5621 5617 5613 5608 5604 5599 5594 5589 5583 5577 5571 5564 5557 5550 5544 5538 5531 5523 5514 5507 5501 5493 5484 5475